Flag Weather past 2 weeks in Islamabad, Pakistan

Now
50 °F

Clear.


Feels Like: 50 °F
Forecast: 46 / 76 °F
Wind: No wind

Location: Islamabad Airport

Current Time: Nov 23, 2014 at 2:41:48 AM

Latest Report: Nov 23, 2014 at 2:00 AM


Visibility: 2 mi

Pressure: 30.04 "Hg

Humidity: 76%

Dew point: 43 °F

Location of IslamabadLocation

Historic Weather in Islamabad — Graph

°F

Islamabad temperature yesterday

Maximum temperature yesterday: 77 °F (at 3:00 PM)
Minimum temperature yesterday: 45 °F (at 7:00 AM)
Average temperature yesterday: 58 °F

Past Weeks' High & Low Weather Summary

 TemperatureHumidityPressure
High79 °F (Nov 9, 3:00 PM)100% (Nov 11, 5:00 AM)30.18 "Hg (Nov 11, 5:00 AM)
Low34 °F (Nov 11, 5:00 AM)21% (Nov 17, 12:00 PM)29.95 "Hg (Nov 21, 4:00 PM)
Average60 °F62%30.06 "Hg
* Reported Nov 8 1:00 AM — Nov 23 1:00 AM, Islamabad, Weather by CustomWeather, © 2014

Note: Actual official high and low records may vary slightly from our data, if they occured in-between our weather recording intervals... More about our weather records

Advertising

Islamabad weather history for previous 24 hours

 ConditionsComfort  
Time TempWeatherWind HumidityBarometerVisibility
1:00 AM
Nov 23
50 °FClear.No wind76%30.04 "Hg2 mi
12:00 AM52 °FClear.No wind77%30.04 "Hg2 mi
11:00 PM
Nov 22
54 °FClear.No wind72%30.04 "Hg2 mi
10:00 PM55 °FClear.No wind67%30.04 "Hg2 mi
9:00 PM55 °FClear.No wind67%30.01 "Hg2 mi
8:00 PM57 °FHaze.No wind63%30.01 "Hg2 mi
7:00 PM59 °FHaze.No wind68%29.98 "Hg2 mi
6:00 PM66 °FHaze.No wind52%29.98 "Hg1 mi
5:00 PM70 °FHaze.No wind43%29.95 "Hg2 mi
4:00 PM73 °FSunny.No wind31%29.95 "Hg3 mi
3:00 PM77 °FSunny.5 mph28%29.95 "Hg2 mi
2:00 PM73 °FSunny.12 mph33%29.95 "Hg2 mi
1:00 PM72 °FSunny.5 mph36%29.98 "Hg3 mi
12:00 PM70 °FSunny.5 mph40%30.01 "Hg2 mi
11:00 AM64 °FSunny.No wind49%30.04 "Hg2 mi
10:00 AM59 °FSunny.No wind51%30.04 "Hg2 mi
9:00 AM54 °FSunny.No wind72%30.01 "Hg2 mi
8:00 AM46 °FFog.No wind87%30.01 "Hg2 mi
7:00 AM45 °FFog.No wind87%29.98 "Hg2 mi
6:00 AM48 °FHaze.No wind76%29.98 "Hg2 mi
5:00 AM48 °FHaze.No wind76%29.95 "Hg2 mi
4:00 AM48 °FHaze.No wind76%29.95 "Hg2 mi
3:00 AM48 °FHaze.No wind76%29.98 "Hg2 mi
2:00 AM50 °FHaze.No wind76%29.98 "Hg2 mi
Weather by CustomWeather, © 2014

See weather overviewHow to use our weather pages